Regional Weather Roundup
Issued by NWS Sterling, VA

Home | Current Version | Previous Version | Text Only | Print | Product List | Glossary On
Versions: 1 2 3 4 5 6 7 8 9 10 11 12 13 14 15 16 17 18 19 20 21 22 23 24 25 26 27
000
ASUS41 KLWX 180311
RWRLWX

REGIONAL WEATHER ROUNDUP
NATIONAL WEATHER SERVICE BALTIMORE MD/WASHINGTON DC
1000 PM EST SUN DEC 17 2017

Note: "FAIR" indicates few or no clouds below 12,000 feet
with no significant weather and/or obstructions to visibility.
 TC=TEMPERATURE CELSIUS

 * =Non NWS site. Station does not report precipitation (e.g. rain,
    snow, etc.), thunder, or fog.

DCZ001-MDZ009-015-VAZ040>042-051-053>054-180400-
WASHINGTON METRO

CITY           SKY/WX    TMP DP  RH WIND       PRES   REMARKS
WASHINGTON NAT CLOUDY    45  34  65 S6        30.17F
DULLES         CLOUDY    41  33  73 CALM      30.16S
ANDREWS AFB    CLOUDY    42  34  75 CALM      30.15S
FT BELVOIR     CLOUDY    39  36  89 CALM      30.16S
QUANTICO       CLOUDY    42  38  85 CALM      30.17F
COLLEGE PARK*  CLOUDY    40  33  73 CALM      30.16S
LEESBURG*      CLOUDY    43  36  75 CALM      30.16S
MANASSAS*      CLOUDY    40  36  86 CALM      30.16S
GAITHERSBURG*  LGT RAIN  41  34  76 E3        30.15F

$$

MDZ006>007-011-014-180400-
BALTIMORE METRO

CITY           SKY/WX    TMP DP  RH WIND       PRES   REMARKS
BWI AIRPORT    LGT RAIN  41  35  79 NE6       30.16F
MD SCIENCE CTR   N/A     43  31  62 MISG      30.16F
MARTIN STATE   CLOUDY    39  34  81 CALM      30.20S
ANNAPOLIS      CLOUDY    42  37  82 CALM      30.16F
FORT MEADE*    CLOUDY    39  32  75 CALM      30.18F

$$

MDZ012-015-019>023-180400-
MARYLAND EASTERN SHORE

CITY           SKY/WX    TMP DP  RH WIND       PRES   REMARKS
OCEAN CITY     CLOUDY    42  41  96 CALM      30.19F
SALISBURY      CLOUDY    42  41  96 S3        30.17F
BAY BRIDGE AP* CLOUDY    43  34  70 CALM      30.17F
CAMBRIDGE*     CLOUDY    41  37  87 CALM      30.17F

$$

MDZ017>025-180400-
SOUTHERN MARYLAND

CITY           SKY/WX    TMP DP  RH WIND       PRES   REMARKS
PATUXENT RIVER CLOUDY    43  40  89 CALM      30.17F
ST INIGOES     CLOUDY    44  36  73 S5        30.16F
LEONARDTOWN*   CLOUDY    41  37  87 CALM      30.18F

$$

MDZ003>005-180400-
NORTH CENTRAL MARYLAND

CITY           SKY/WX    TMP DP  RH WIND       PRES   REMARKS
FREDERICK*     CLOUDY    39  32  75 CALM      30.18S
HAGERSTOWN APT CLOUDY    38  31  76 NW8       30.13F
WESTMINSTER*   CLOUDY    41  32  70 E3        30.14F

$$

MDZ501>502-180400-
WESTERN MARYLAND

CITY           SKY/WX    TMP DP  RH WIND       PRES   REMARKS
OAKLAND*       CLOUDY    34  27  75 SW3       30.05S
CUMBERLAND*    CLOUDY    36  34  93 CALM      30.18S

$$

VAZ025>031-180400-
SHENANDOAH VALLEY

CITY           SKY/WX    TMP DP  RH WIND       PRES   REMARKS
WINCHESTER*    RAIN      37  32  81 CALM      30.13F
FRONT ROYAL*   CLOUDY    43  32  65 MISG      30.12F
LURAY*         CLOUDY    39  37  93 CALM      30.13R
NEW MARKET*    CLOUDY    37  37  97 CALM      30.13S
STAUNTON*      CLOUDY    40  32  73 S3        30.15R
WAYNESBORO*    CLOUDY    40  33  76 SW5       30.13R

$$

WVZ021-048>050-054>055-180400-
EASTERN WEST VIRGINIA PANHANDLE

CITY           SKY/WX    TMP DP  RH WIND       PRES   REMARKS
MARTINSBURG    CLOUDY    40  32  73 N3        30.13S
PETERSBURG*    CLOUDY    37  34  89 CALM      30.14S

$$

VAZ036>039-050-180400-
CENTRAL FOOTHILLS

CITY           SKY/WX    TMP DP  RH WIND       PRES   REMARKS
CHARLOTTESVILL CLOUDY    44  34  67 CALM      30.14S
CULPEPER*      CLOUDY    41  37  88 CALM      30.16S
ORANGE*        CLOUDY    41  32  70 CALM      30.15S
GORDONSVILLE*  CLOUDY    41  36  80 SW5       30.15S
WARRENTON*     CLOUDY    40  35  83 CALM      30.15R

$$

VAZ055>057-180400-
NORTH AND CENTRAL PIEDMONT

CITY           SKY/WX    TMP DP  RH WIND       PRES   REMARKS
FREDERICKSBRG* CLOUDY    44  35  72 CALM      30.15S
STAFFORD*      CLOUDY    39  39 100 CALM      30.20S

$$

NCZ024-NYZ072-PAZ021-071-VAZ022-071-180400-
OTHER REGIONAL OBSERVATIONS

CITY           SKY/WX    TMP DP  RH WIND       PRES   REMARKS
NEW YORK CITY  CLOUDY    36  26  67 E6        30.25F
PHILADELPHIA   CLOUDY    39  31  72 NE8       30.21F
PITTSBURGH     CLOUDY    38  34  85 CALM      30.09S
ROANOKE        CLOUDY    43  35  73 CALM      30.17S
RICHMOND       CLOUDY    43  36  76 CALM      30.17F
RALEIGH        CLOUDY    45  41  86 CALM      30.21S

$$

ANZ530>537-180400-
MARINE OBSERVATIONS

STATION/POSITION TIME  TEMP    WIND        PRES
                       AIR SEA DIR/SP/G
                 (UTC) (F)     (DEG/KT/KT) (MB)
THOMAS PT LIGHT  0300   44 44   CALM  /  1   N/A
BALT KEY BRIDGE  0242           40/  5/  5 1021.8F
COVE POINT       0242          180/  8/  9 1022.2F
LEWISETTA        0242      40  230/  7/  8 1021.8F
SOLOMONS ISLAND  0242      44  160/  2/  3 1021.3F
PINEY POINT      0242          180/  5/  6   N/A

$$





USA.gov is the U.S. government's official web portal to all federal, state and local government web resources and services.